Wind_Speed
14 14 14 15 15 15 16 16 16 15 15 15 16 16 16 16 17 17 17 17 17 17 17 17 18 18 17 17 18 18 19 19 19 18 18 18 18 18 18 19 19 19 19
15 15 15 15 15 15 15 16 16 16 16 16 17 17 17 17 18 18 18 18 18 18 18 19 19 19 18 18 18 18 18 19 19 19 18 19 19 19 19 20 20 21 21
15 16 16 16 16 16 16 16 16 17 17 17 17 17 17 18 18 18 18 18 19 19 19 19 20 20 19 19 19 19 19 19 19 19 19 19 20 20 20 20 21 21 21
16 16 16 16 17 17 17 17 17 17 17 17 17 17 17 18 18 18 19 19 19 20 20 20 20 19 19 19 19 19 19 20 20 20 20 20 21 22 22 21 21 20 20
17 17 17 17 18 18 18 18 18 17 18 18 18 18 18 18 19 19 19 19 19 19 19 19 19 19 19 19 19 19 20 21 21 21 21 22 22 22 22 21 21 20 20
18 18 18 18 18 18 18 18 18 18 18 18 18 18 18 19 19 20 19 19 19 19 19 19 19 19 19 19 20 20 20 20 21 21 22 22 23 22 22 21 21 21 21
20 19 19 19 19 19 19 19 19 19 19 18 18 18 18 18 19 19 19 19 19 19 19 19 19 19 19 19 20 20 20 21 21 21 22 23 23 22 22 22 22 22 22
20 20 20 20 20 20 20 20 20 20 19 19 19 20 19 19 19 18 19 19 19 20 19 19 18 19 19 19 19 20 20 21 21 22 22 23 23 23 22 23 23 24 24
21 21 20 20 21 20 20 20 20 20 19 19 19 20 20 20 20 20 20 20 20 20 20 19 19 19 19 19 20 21 21 22 22 22 23 23 23 23 24 24 24 25 25
22 22 21 21 21 21 21 21 20 20 20 20 20 20 20 20 20 20 20 20 20 21 20 20 20 20 20 20 21 22 22 22 23 23 23 23 23 23 24 24 24 25 25
23 23 22 22 22 22 22 22 21 21 21 20 20 20 20 20 20 20 20 20 21 21 21 21 22 22 22 22 22 23 23 23 23 23 24 23 23 24 24 25 25 25 26
23 23 23 23 22 22 22 22 22 21 21 20 20 20 20 20 20 20 21 21 22 22 22 22 22 22 22 23 24 24 25 24 24 24 24 24 24 24 24 25 25 26 26
24 23 23 23 22 22 22 22 22 22 21 21 22 21 21 21 21 21 22 22 22 23 23 23 23 23 23 24 25 25 26 25 25 25 25 25 25 24 24 25 25 26 27
24 23 23 23 23 22 22 22 22 22 22 22 22 22 22 22 22 22 23 23 23 23 23 23 23 24 25 26 26 26 26 25 25 26 26 26 26 25 25 26 26 26 27
25 24 24 24 24 23 23 23 23 24 23 23 23 23 23 23 23 24 24 24 24 25 24 24 24 25 25 26 26 26 26 26 26 26 26 26 26 26 26 26 27 27 27
26 25 25 25 25 24 24 24 24 25 25 25 24 24 24 25 25 25 25 25 25 25 25 25 25 25 26 27 27 27 26 26 26 26 26 26 26 26 27 27 28 28 28
27 26 26 26 26 25 25 25 25 25 25 25 25 25 26 26 26 26 26 26 25 25 25 25 25 25 26 26 26 26 26 27 27 27 27 27 27 27 28 29 29 29 29
28 28 28 27 27 26 26 26 26 26 25 25 26 26 27 27 27 27 26 26 25 25 25 25 25 26 26 26 26 26 27 27 27 28 27 27 27 28 28 29 30 30 30
29 29 28 28 28 27 27 27 27 27 27 27 26 27 27 27 28 27 27 27 27 26 27 27 27 27 27 27 27 26 26 27 27 28 28 28 28 28 28 29 29 30 29
30 29 29 28 28 28 28 28 27 28 28 28 27 27 28 28 27 27 28 28 28 28 28 28 29 29 29 28 27 27 27 27 27 28 29 29 29 29 29 29 29 29 29
30 30 29 29 29 29 29 29 28 28 29 28 28 28 28 28 28 28 28 28 28 28 28 28 28 28 28 27 27 27 27 27 27 28 28 29 29 29 29 29 29 29 28
31 31 30 30 29 29 29 29 29 29 29 29 29 29 28 28 28 28 28 28 28 28 29 29 28 28 28 28 28 27 27 28 28 28 28 28 29 29 29 29 29 28 27
32 31 31 31 30 30 30 30 30 30 30 30 30 30 29 29 29 29 29 28 28 29 29 30 30 29 29 28 28 28 29 29 29 29 29 29 29 28 28 28 28 27 27
32 32 32 32 31 31 31 31 30 31 30 30 30 29 29 29 29 29 29 29 30 30 30 30 30 29 29 28 29 30 30 30 29 29 29 28 28 28 27 27 27 27 27
31 32 32 32 32 31 31 31 31 30 30 30 30 29 29 29 30 30 30 30 30 31 31 31 30 30 29 29 29 30 30 30 31 31 30 29 29 28 27 26 26 26 26
31 32 31 31 31 31 31 31 31 30 30 30 30 30 30 30 30 30 30 30 30 31 31 31 31 30 29 29 29 30 30 30 31 31 30 29 28 28 27 27 26 26 26
Wind_Direction
293 291 289 289 287 288 287 284 284 283 279 276 274 274 273 274 275 273 272 274 275 276 276 277 277 276 276 273 271 271 272 271 271 272 272 272 273 274 276 277 278 280 281
293 293 292 290 290 290 288 285 283 282 280 276 275 273 274 276 275 272 272 274 275 276 276 276 277 277 278 274 271 271 272 272 272 272 272 273 275 275 276 278 278 278 279
295 293 290 289 290 292 291 287 285 283 282 279 277 275 274 275 276 274 274 275 276 276 276 277 277 277 276 273 270 270 271 272 273 273 274 274 277 277 278 280 279 278 277
294 293 290 287 289 290 291 289 287 284 282 280 279 278 276 276 276 276 276 276 277 277 277 277 277 276 274 271 270 270 271 271 273 274 275 277 278 279 279 279 278 277 275
294 292 289 286 287 288 289 289 287 284 282 281 279 278 276 277 277 276 276 277 276 275 276 276 275 276 274 271 270 271 272 271 273 274 277 279 280 281 280 278 275 275 275
293 291 289 287 286 286 286 288 288 285 283 280 278 278 278 279 279 276 275 277 275 275 276 276 274 274 273 271 271 273 274 274 274 275 277 280 281 281 279 277 275 274 274
292 292 290 287 284 285 285 286 286 284 281 278 276 277 279 280 281 278 274 275 275 276 276 275 274 273 271 269 270 271 273 275 277 278 279 281 280 280 278 276 274 273 273
292 292 290 289 285 283 284 285 285 284 280 277 275 276 279 280 281 279 278 276 276 277 278 276 274 273 271 270 271 272 274 276 279 281 282 281 280 278 278 277 275 274 273
291 291 290 289 287 285 285 285 285 284 281 277 275 277 279 280 280 281 280 279 278 278 278 277 274 273 272 272 273 274 276 278 280 281 281 282 283 281 279 278 276 275 273
289 289 289 288 287 286 285 286 284 282 281 279 277 277 277 280 280 281 281 280 279 278 278 278 277 275 273 273 276 278 278 279 280 280 280 281 283 282 282 280 278 276 274
289 288 287 287 287 286 285 286 284 282 281 281 280 278 278 279 282 281 280 280 280 279 279 279 277 276 274 274 277 280 281 281 281 281 281 282 283 284 282 281 280 277 276
287 287 286 286 287 286 284 284 283 283 282 281 282 281 281 279 280 281 282 281 281 280 279 278 277 275 276 277 277 279 280 281 281 281 281 281 284 284 283 281 280 279 278
285 285 284 284 284 285 283 281 280 281 281 281 281 280 281 281 280 281 282 281 280 279 278 279 279 277 277 278 279 280 280 279 279 280 281 282 283 284 283 282 281 280 280
283 283 283 283 283 284 284 281 279 279 280 281 280 280 280 281 280 282 283 284 283 280 279 279 279 279 279 279 281 280 280 278 278 280 280 281 283 283 284 284 282 281 281
282 281 281 282 282 282 282 281 280 278 278 279 279 280 280 281 281 283 284 286 285 282 280 279 280 280 280 280 280 279 278 278 278 277 278 279 281 283 285 285 284 284 283
280 280 280 280 280 279 279 280 280 279 278 278 277 279 280 281 280 281 283 285 284 282 280 280 280 281 282 281 279 279 278 278 278 278 278 279 280 282 283 285 285 284 283
278 278 279 279 278 277 279 279 279 279 278 278 277 278 280 281 280 280 281 283 282 281 280 280 281 282 283 282 279 278 277 277 277 278 278 279 280 281 283 284 285 285 284
277 277 278 278 277 276 277 278 277 277 278 279 279 279 280 280 280 280 280 280 281 282 281 281 281 282 283 282 280 278 277 276 276 276 278 279 281 283 284 286 286 285 284
276 276 277 276 276 276 276 277 276 276 277 278 278 279 281 280 280 280 280 280 280 280 281 281 281 283 283 281 280 279 278 277 277 277 278 279 281 283 285 286 287 286 285
275 276 275 275 275 276 275 276 276 275 276 277 277 277 278 280 280 280 280 280 280 280 280 280 280 281 281 280 279 279 280 279 279 280 280 280 281 282 283 285 286 286 285
273 274 274 274 276 276 275 275 275 275 276 276 277 277 277 277 278 280 281 280 280 280 281 282 282 281 280 279 279 280 280 280 281 281 282 281 281 281 282 283 284 284 283
272 272 272 273 274 275 275 274 275 276 276 276 277 277 278 277 277 278 278 279 279 280 281 282 282 280 278 277 279 280 280 281 281 281 281 281 280 280 280 281 282 282 280
272 271 271 272 273 273 273 274 275 276 278 277 276 276 277 278 278 278 278 278 279 280 282 283 283 281 279 278 278 278 280 281 280 280 279 280 279 279 279 279 279 278 278
271 271 271 272 272 272 272 273 274 276 277 277 276 276 277 278 280 279 278 278 280 281 283 284 283 282 280 278 278 279 279 279 279 279 279 279 279 278 278 279 278 277 277
271 271 270 270 271 272 272 273 273 274 276 277 276 276 278 279 280 280 279 280 282 283 282 282 282 281 279 278 278 278 279 279 279 279 279 279 278 277 277 278 278 278 278
272 270 270 270 270 271 272 273 273 274 276 277 277 277 278 279 280 279 279 280 282 283 283 283 281 280 279 279 279 279 279 278 278 278 279 278 277 276 276 277 277 277 278
Height
5800 5798 5797 5796 5795 5793 5792 5791 5790 5789 5789 5788 5788 5787 5787 5786 5786 5786 5785 5785 5784 5784 5783 5782 5781 5780 5780 5779 5779 5779 5779 5779 5779 5779 5779 5778 5778 5777 5776 5776 5775 5774 5773
5796 5794 5793 5792 5790 5789 5787 5786 5785 5784 5784 5783 5783 5782 5782 5781 5781 5780 5780 5779 5779 5778 5777 5776 5775 5775 5774 5773 5773 5773 5773 5773 5773 5773 5773 5773 5772 5771 5771 5770 5769 5768 5767
5792 5790 5788 5787 5786 5784 5783 5781 5780 5779 5778 5778 5777 5776 5776 5775 5775 5775 5774 5774 5773 5772 5772 5770 5769 5769 5768 5767 5767 5768 5768 5767 5767 5767 5767 5767 5766 5765 5764 5763 5762 5761 5760
5787 5786 5784 5782 5781 5780 5778 5777 5775 5774 5773 5772 5772 5771 5770 5770 5769 5769 5768 5768 5767 5766 5765 5764 5763 5762 5762 5762 5762 5762 5762 5762 5761 5761 5761 5760 5760 5759 5758 5757 5756 5754 5753
5782 5781 5779 5777 5776 5774 5773 5772 5770 5769 5768 5767 5766 5765 5765 5764 5763 5763 5763 5762 5761 5760 5759 5758 5757 5757 5756 5756 5756 5756 5756 5756 5756 5755 5755 5754 5753 5752 5751 5750 5749 5748 5747
5777 5775 5774 5772 5771 5769 5768 5766 5765 5764 5763 5762 5761 5760 5759 5758 5758 5757 5756 5756 5755 5754 5753 5752 5751 5751 5750 5750 5750 5750 5750 5750 5749 5749 5748 5747 5746 5745 5744 5743 5742 5741 5741
5772 5770 5768 5767 5765 5764 5762 5761 5760 5758 5757 5756 5755 5754 5754 5753 5752 5751 5750 5750 5749 5748 5747 5746 5746 5745 5745 5744 5744 5744 5744 5743 5743 5742 5742 5740 5739 5738 5737 5736 5735 5734 5733
5766 5764 5763 5761 5759 5758 5757 5755 5754 5752 5751 5750 5750 5749 5748 5747 5746 5745 5744 5744 5743 5742 5741 5740 5740 5739 5739 5738 5738 5738 5737 5736 5736 5735 5734 5733 5731 5730 5729 5728 5727 5727 5726
5760 5758 5756 5755 5753 5752 5750 5749 5748 5747 5746 5745 5744 5743 5742 5741 5740 5739 5739 5738 5737 5736 5735 5734 5734 5733 5733 5732 5732 5732 5731 5730 5729 5728 5726 5725 5724 5722 5721 5720 5719 5719 5718
5753 5752 5750 5749 5747 5746 5744 5743 5742 5741 5740 5739 5738 5737 5736 5735 5734 5733 5732 5732 5731 5730 5729 5728 5728 5727 5726 5726 5725 5725 5724 5723 5722 5720 5719 5718 5716 5715 5713 5712 5711 5710 5709
5747 5745 5744 5742 5741 5739 5738 5737 5735 5734 5734 5733 5732 5731 5730 5729 5728 5727 5726 5725 5724 5724 5723 5722 5722 5721 5720 5719 5718 5718 5717 5716 5714 5713 5712 5711 5709 5708 5706 5704 5703 5702 5701
5740 5739 5737 5736 5734 5732 5731 5730 5729 5728 5727 5727 5726 5725 5723 5723 5722 5721 5720 5719 5718 5717 5717 5716 5715 5714 5713 5712 5711 5710 5709 5708 5707 5706 5704 5703 5702 5700 5698 5696 5695 5694 5693
5733 5732 5730 5729 5728 5726 5724 5723 5722 5721 5721 5720 5719 5718 5717 5716 5715 5714 5713 5712 5711 5710 5709 5708 5707 5707 5706 5705 5704 5702 5701 5700 5699 5698 5697 5695 5694 5692 5690 5689 5687 5685 5684
5726 5725 5723 5722 5721 5719 5718 5716 5715 5715 5714 5713 5712 5712 5711 5710 5709 5707 5706 5705 5704 5703 5702 5701 5700 5699 5698 5697 5696 5694 5693 5692 5691 5690 5688 5687 5685 5684 5682 5681 5679 5678 5676
5719 5717 5716 5715 5713 5712 5711 5710 5708 5708 5706 5706 5705 5704 5704 5703 5702 5700 5699 5698 5696 5695 5694 5693 5692 5691 5690 5689 5687 5686 5684 5683 5682 5681 5680 5679 5677 5676 5674 5672 5671 5669 5668
5710 5709 5708 5707 5706 5704 5703 5702 5701 5700 5699 5698 5697 5696 5696 5695 5693 5692 5691 5690 5688 5687 5686 5685 5684 5682 5681 5680 5678 5677 5676 5674 5673 5672 5671 5670 5669 5667 5666 5664 5662 5660 5659
5702 5701 5700 5699 5697 5696 5695 5694 5693 5692 5691 5690 5689 5688 5687 5686 5685 5684 5683 5681 5680 5678 5677 5676 5675 5674 5672 5671 5669 5668 5667 5665 5664 5663 5662 5661 5660 5658 5657 5655 5653 5651 5649
5693 5692 5691 5690 5689 5688 5687 5686 5685 5684 5683 5682 5681 5680 5678 5677 5676 5675 5674 5673 5672 5670 5669 5668 5667 5665 5663 5662 5660 5659 5657 5656 5655 5654 5653 5652 5651 5649 5647 5645 5643 5641 5639
5683 5682 5681 5681 5680 5679 5678 5677 5676 5675 5675 5674 5672 5671 5670 5668 5667 5666 5665 5664 5663 5662 5660 5659 5657 5656 5654 5653 5651 5650 5648 5647 5645 5645 5644 5642 5641 5639 5637 5635 5633 5631 5629
5673 5673 5672 5671 5670 5669 5668 5668 5667 5666 5665 5664 5663 5662 5661 5659 5658 5657 5656 5655 5654 5652 5651 5650 5648 5646 5645 5643 5642 5640 5639 5637 5636 5635 5634 5632 5631 5629 5628 5626 5624 5622 5620
5663 5663 5662 5662 5661 5660 5659 5658 5657 5657 5656 5655 5654 5652 5651 5650 5649 5648 5647 5645 5644 5643 5641 5640 5638 5636 5635 5633 5632 5631 5629 5628 5627 5625 5624 5623 5621 5620 5618 5616 5614 5612 5610
5653 5653 5652 5652 5651 5650 5649 5648 5648 5647 5646 5645 5644 5643 5642 5640 5639 5638 5637 5636 5634 5633 5631 5630 5628 5626 5625 5623 5622 5621 5620 5619 5617 5616 5615 5613 5611 5610 5608 5606 5604 5603 5601
5643 5642 5642 5642 5641 5640 5639 5638 5638 5637 5636 5635 5634 5633 5632 5631 5630 5628 5627 5626 5624 5623 5621 5620 5618 5616 5614 5613 5612 5611 5610 5609 5608 5606 5605 5603 5602 5600 5598 5597 5595 5594 5592
5632 5632 5631 5631 5631 5630 5629 5629 5628 5627 5626 5625 5624 5623 5622 5621 5620 5618 5617 5616 5614 5613 5611 5609 5608 5606 5604 5603 5602 5601 5600 5599 5598 5596 5595 5593 5592 5591 5589 5588 5586 5585 5583
5621 5621 5621 5621 5620 5620 5619 5619 5618 5617 5616 5615 5615 5614 5612 5611 5610 5608 5607 5605 5604 5603 5601 5599 5598 5596 5595 5593 5592 5591 5590 5589 5587 5586 5585 5583 5582 5581 5580 5578 5577 5576 5574
5611 5611 5610 5610 5610 5610 5609 5609 5608 5607 5606 5605 5604 5603 5602 5601 5600 5598 5597 5595 5594 5592 5590 5589 5587 5586 5584 5583 5582 5581 5580 5578 5577 5576 5574 5573 5572 5571 5570 5569 5568 5567 5566